STARLINK-5900, 55948

Orbit data source: Space-Track

STARLINK-5900, 55948 is a payload satellite owned by SpaceX/Seattle (US) in LEO that was launched on Fri, 17 Mar 2023 UTC via an FALCON 9 launch vehicle from the Air Force Western Test Range (AFWTR). Payload-class satellites include a variety of spacecraft equipped with specific instruments for various scientific and technological missions. These include communications satellites like Starlink; space stations such as the ISS; scientific satellites like the Hubble; Earth observation satellites from companies like Planet Labs, Umbra, and HawkEye 360; GPS; miniature CubeSats for education and research; and military/defense satellites.

Loading next visibility...
Identifier
55948, 2023-037AL
Orbit
LEO
Last TLE update
22 hours ago
Origin
Manufacturer
SpaceX/Seattle
Mission
Operational Commercial Communications
Bus & Motor
STARLINK, Unknown motor
Mass
305 kg wet, ~290 kg dry
Launch date (UTC)
2023-03-17 (2 years ago)
Launch vehicle
FALCON 9
Launch site
Air Force Western Test Range (AFWTR)
Object type
Payload
Rocket body
Debris
Shape & HBR
Box + 1 Pan, 9 m
Radar Cross Section
11.087 m², Large (>1 m²)

Expand to show TLE details & history

TLE from 22 hours ago
0 STARLINK-5900
1 55948U 23037AL  25128.68523114 -.00000159  00000-0 -55406-5 0  9996
2 55948  69.9988 313.5936 0003044 265.1428  94.9383 14.98328160118784
Epoch: 2025-05-08T16:26Z
Definitive object data (Epoch: 2025-05-08T16:26:43.97Z)
Latitude
-0.00007°
Longitude
-159.84182°
Altitude
574.668 km
Speed
7.574 km/s
True Right ascension
20h 54m 22s
True Declination
0° 00' 00"
Sunlit
Object was in daylight at TLE epoch
Visualization TLE readout
Latitude
-64.59819°
Longitude
67.52261°
Altitude
594.004 km
Speed
7.563 km/s
Apparent Right ascension
11h 08m 12s
Apparent Declination
-53° 08' 36"
Sunlit
Object is in full shadow
Visualization observer readout
Local Sidereal Time
22:34:22
Azimuth
200.741° SSW
Elevation
-75.573°
Doppler factor
1
Orbital elements
Apogee altitude
572.125 km
Perigee altitude
567.895 km
Semi-major axis
6,948.147 km
Eccentricity
0.0003044
Inclination
69.9988°
RAAN
313.5936°
Arg. of periapsis
265.1428°
True anomaly
94.97305°
Mean anomaly
94.9383°
Eccentric anomaly
94.95568°
Mean motion
3.74748 °/min
BSTAR
-0.0000055406
Orbital period
96.06 mins
Loading maneuver chart data...
Loading SW <> Apogee altitude chart data...
Loading historical data...
Loading historical data...
Loading historical data...
Loading historical data...
Loading historical data...
Loading historical data...
Loading historical data...

STARLINK-5900 Visibility forecast

Observer location: undefined°, undefined°

Span
Click to sort rows by Start time (UTC) header in descending order
Start Az.
Max El. time (UTC)
Max El. Az.
Max El.
End time (UTC)
End Az.
4 mins2025-05-09 15:04:13.563Z278.101° WNW2025-05-09 15:06:13.563Z308.001° NW13.895°2025-05-09 15:08:13.563Z337.941° N
6 mins2025-05-09 23:27:13.563Z327.209° NNW2025-05-09 23:30:13.563Z231.052° WSW42.584°2025-05-09 23:33:13.563Z167.816° S
6 mins2025-05-10 13:27:13.563Z200.654° SSW2025-05-10 13:30:13.563Z43.136° NE44.116°2025-05-10 13:33:13.563Z25.82° NE
|